This demonstration page uses our WeatherBlox Daily Observations layout. Learn more.

Left ArrowRight Arrow

34.02893, -84.19858

Hourly Observations for May 24, 2015

Temp ( °F °C ) Dew Point ( °F °C ) Humidity (%) Winds ( mph kmh ) Pressure ( in mb ) Visibility ( mi km ) Precip ( " mm )
12:53 am 00:53 Clear 67 19.4 47 8.3 49 49 E 3 6 30.27 1025 10 16 0.00 0.00
1:53 am 01:53 Clear 65 18.3 48 8.9 54 54 Calm 30.27 1025 9 14 0.00 0.00
2:53 am 02:53 Clear 64 17.8 50 10 60 60 ESE 5 7 30.27 1025 9 14 0.00 0.00
3:53 am 03:53 Clear 64 17.8 54 12.2 70 70 Calm 30.27 1025 8 13 0.00 0.00
4:53 am 04:53 Clear 63 17.2 55 12.8 76 76 VRB 5 7 30.29 1026 8 13 0.00 0.00
5:53 am 05:53 Clear 62 16.7 57 13.9 84 84 ESE 3 6 30.30 1026 8 13 0.00 0.00
6:53 am 06:53 Mostly Sunny 61 16.1 57 13.9 87 87 E 3 6 30.31 1027 7 11 0.00 0.00
7:53 am 07:53 Sunny 64 17.8 59 15 84 84 VRB 5 7 30.32 1027 8 13 0.00 0.00
8:53 am 08:53 Mostly Cloudy 68 20 60 15.6 76 76 ESE 5 7 30.33 1027 8 13 0.00 0.00
9:26 am 09:26 Mostly Cloudy 70 21 61 16 73 73 SE 8 13 30.33 1027 8 13 0.00 0.00
9:53 am 09:53 Cloudy 70 21.1 62 16.7 76 76 VRB 6 9 30.33 1027 8 13 0.00 0.00
10:26 am 10:26 Mostly Cloudy 72 22 63 17 73 73 E 8 13 30.33 1027 8 13 0.00 0.00
10:35 am 10:35 Mostly Cloudy 72 22.2 62 16.7 71 71 SE 7 11 30.33 1027 8 13 0.00 0.00
10:53 am 10:53 Mostly Cloudy 71 21.7 62 16.7 73 73 SE 5 7 30.32 1027 8 13 0.00 0.00
11:17 am 11:17 Partly Cloudy 73 22.8 63 17.2 71 71 ESE 7 11 30.33 1027 8 13 0.00 0.00
11:53 am 11:53 Partly Cloudy 76 24.4 63 17.2 64 64 VRB 6 9 30.31 1026 8 13 0.00 0.00
12:53 pm 12:53 Partly Cloudy 78 25.6 62 16.7 58 58 VRB 7 11 30.29 1026 9 14 0.00 0.00
1:53 pm 13:53 Mostly Cloudy 78 25.6 60 15.6 54 54 SE 9 15 30.26 1025 9 14 0.00 0.00
2:53 pm 14:53 Mostly Cloudy 82 27.8 60 15.6 47 47 S 9 15 30.24 1024 9 14 0.00 0.00
3:53 pm 15:53 Partly Cloudy 83 28.3 60 15.6 46 46 ESE 10 17 30.22 1023 9 14 0.00 0.00
4:53 pm 16:53 Mostly Cloudy 80 26.7 59 15 49 49 SE 8 13 30.20 1023 9 14 0.00 0.00
5:53 pm 17:53 Partly Cloudy 80 26.7 58 14.4 47 47 SE 8 13 30.20 1023 9 14 0.00 0.00
6:53 pm 18:53 Partly Cloudy 80 26.7 58 14.4 47 47 SE 12 19 30.19 1022 9 14 0.00 0.00
7:53 pm 19:53 Sunny 78 25.6 58 14.4 50 50 E 6 9 30.19 1022 9 14 0.00 0.00
8:53 pm 20:53 Clear 75 23.9 58 14.4 55 55 VRB 5 7 30.19 1022 9 14 0.00 0.00
9:53 pm 21:53 Clear 73 22.8 58 14.4 59 59 E 3 6 30.20 1023 10 16 0.00 0.00
10:53 pm 22:53 Clear 72 22.2 58 14.4 61 61 E 6 9 30.22 1023 10 16 0.00 0.00
11:53 pm 23:53 Clear 71 21.7 57 13.9 61 61 E 5 7 30.22 1023 10 16 0.00 0.00

Powered by AerisWeather